Weather in Kherson

Ukraine / Kherson District     46°38′25″N   32°36′53″E
temp.,
°C
wind,
m/s
gust,
m/s
humid.,
%
clouds,
%
prec.,
mm/h
press.,
hPa
HPBL,
m
26 february, fri
fri2623:00+5w3694100 0.1 1030151
02:00+5nw349799 0.1 1029123
05:00+5wnw249694 0.0 102894
08:00+6w249890 0.0 1027129
11:00+9wsw468392 0.0 1026382
14:00+11wsw566654 0.0 1024432
17:00+9wsw58710 0.0 1022205
20:00+7sw48800 0.0 1021148
27 february, sat
sat2723:00+6wsw34860 0.0 102067
02:00+5wnw33890 0.0 101940
05:00+4wnw33920 0.0 101854
08:00+5nw37910 0.0 1018260
11:00+9nw467541 0.0 1018463
14:00+10nnw576569 0.0 1018970
17:00+7nnw6870100 0.0 1018946
20:00+5nnw5873100 0.0 1019816
28 february, sun
sun2823:00+4nw5983100 0.1 1020583
02:00+4nw5887100 0.1 1020612
05:00+3nnw598396 0.4 1020759
08:00+3nnw698491 0.4 1022630
11:00+4nnw687999 0.1 1022821
14:00+5nnw686599 0.3 10231146
17:00+5nnw686688 0.1 10231076
20:00+3nw487294 0.2 1025752
1 march, mon
mon123:00+2nw4780100 0.0 1025384
02:00+1nw3687100 0.0 1025217
05:000nw3488100 0.0 1024116
08:00+1nnw348198 0.0 1026229
11:00+4n226236 0.0 1026903
14:00+6n335963 0.0 10271066
17:00+5n4563100 0.0 1028966
20:00+4n3672100 0.1 1030661
2 march, tue
tue223:00+3n467896 0.1 1031582
02:00+1nw348781 0.1 1031117
05:00+1wnw368294 0.0 1030236
08:00+2w478497 0.0 1030298
11:00+5w5768100 0.0 1029518
14:00+9w7106499 0.0 1027790
17:00+8w61168100 0.0 1024671
20:00+6w6137796 0.0 1024373